Find Starlink 4047

NORAD ID: 53243 Int'l Des: 2022-086 Owner: SPXS Country: US Constellation: starlink operational
LEOCIRCULAR

Current View

Loading 3D Globe...

About Starlink 4047

Starlink 4047 (NORAD 53243) is a starlink constellation satellite (v1.5) launched Jul 24, 2022 by SPXS of US. It operates in LEO, CIRCULAR orbit with a mass of 297.00 kg.

About Starlink 4047

Description loading...

Upcoming Passes

Passes for default location (London). Set your location on the main map for personalized predictions.

Altitude History

Loading altitude history...

Two-Line Element Set

1 53243U 22086B 26166.18093072 .00000018 00000-0 19213-4 0 9995
2 53243 53.1614 126.0743 0001369 90.3018 269.8131 15.08835144215986
Epoch: Jun 15, 2026 • Age: 10 hours

Current Status

Altitude 542.9 km
Velocity 7.59 km/s
Sub-Earth Point -11.05°S, 172.44°W
Launch Date Jul 24, 2022
Age 3.8 years
Type internet

Technical Details

Classification Payload
Mass 297.00 kg
Dry Mass 275.00 kg
Total Mass 297.00 kg
Length 0.20 m
Diameter 2.80 m
Span 9.00 m
Shape Box + pan
Manufacturer SPXS
Bus Type Starlink
Phase Status In Orbit
Owner/State SPXS/US

Most Searched